FREGAT DEB, 45635

Orbit data source: Space-Track

FREGAT DEB, 45635 is space debris in LEO originally from a launch on Mon, 18 Jul 2011 UTC launched from the Tyuratam Missile And Space Complex (TTMTR). Debris objects in space refer to the collection of defunct objects orbiting the Earth. Examples of debris include non-operational satellites, rocket bodies, and fragments generated from explosions, collisions, or faulty payload assembly.

Loading next visibility...
Identifier
45635, 2011-037AB
Orbit
LEO
Country
Flag of CISCIS
Related business
Manufacturer
Lavochkin
Mission
Spacecraft
Bus & Motor
Unknown
Mass
Unknown
Launch date (UTC)
2011-07-18 (15 years ago)
Launch vehicle
Unknown
Launch site
Tyuratam Missile And Space Complex (TTMTR)
Object type
Payload
Rocket body
Debris
Shape & HBR
Unknown shape, 0.1 m
Radar Cross Section
Medium (>0.1 m² and <1 m²)

Expand to show TLE details & history
Last TLE update: 23 hours ago

TLE from 23 hours ago
0 FREGAT DEB
1 45635U 11037AB  26151.01814868  .00155617  00000-0  17325-1 0  9990
2 45635  51.1716  37.8521 0745138 346.8928  11.3519 13.76791691258915
Epoch: 2026-05-31T00:26Z
TLE epoch observation values (Epoch: 2026-05-31T00:26:08.045Z)
Latitude
0.00001°
Longitude
142.79274°
Altitude
440.519 km
Speed
7.922 km/s
True Right ascension
02h 31m 24s
True Declination
0° 00' 00"
Sunlit
Object was in daylight at epoch
Visualization orbit readout
Latitude
Unknown
Longitude
Unknown
Altitude
Unknown
Speed
Unknown
Apparent Right ascension
Unknown
Apparent Declination
Unknown
Sunlit
N/A
Visualization observer readout
Local Sidereal Time
09:16:47
Azimuth
Unknown
Elevation
Unknown
Doppler factor
Unknown
Orbital elements
Apogee altitude
1,523.807 km
Perigee altitude
427.862 km
Semi-major axis
7,353.971 km
Eccentricity
0.07451
Inclination
51.1716°
RAAN
37.8521°
Arg. of periapsis
346.8928°
True anomaly
13.20042°
Mean anomaly
11.3519°
Eccentric anomaly
12.25836°
Mean motion
3.4416 °/min
Orbital period
104.6 mins
BSTAR
0.017325
Loading maneuver chart data...
Computing Atmospheric mass density...
Loading historical data...
Loading historical data...
Loading historical data...
Loading historical data...
Loading historical data...
Loading historical data...
Loading historical data...

Documentation

Showing up to 5 results
|